Torna al catalogo

COSMOS 1375 DEB

AttivoLEO
NORAD 17102·DEBRIS·🇷🇺 Russia

Lanciato Jun 6, 1982 da Plesetsk Cosmodrome

Loading…

Prossimi Passaggi (prossime 24 ore)

TLE

AggiornatoSource: Space-Track

Epoca: Sep 14, 2026, 05:04 UTC

1 17102U 82055AD  26257.21128949 -.00000047  00000-0  39454-4 0  9990
2 17102  65.8374 336.9872 0064349  85.1090 303.8907 13.61049068 31960

Traccia COSMOS 1375 DEB in tempo reale con AllMySat

Download on the App Store